LiveATC.Net - Listen to live air traffic control over the Internet!


ICAO: KEAU  IATA: EAU   Airport: Chippewa Valley Regional Airport
City: Eau Claire   State/Province: Wisconsin
Country: United States   Continent: North America
KEAU METAR Weather: KEAU 221856Z 21009KT 10SM CLR 05/M03 A2997 RMK AO2 SLP159 T00501033
KEAU Flight Activity (FlightAware)
KEAU Airport Info   (iFlightPlanner)
KEAU VFR Sectional Chart   (iFlightPlanner) 
KEAU IFR Low Chart   (iFlightPlanner) 

KEAU Tower
Feed Status: UP   Listeners: 0
Listen in your browser - HTML5 player (in browser, HTML5)
Click here to listen with your own player (launches your MP3 player)
Archive Access: KEAU Tower
FacilityFrequency
Eau Claire Tower118.575

NOTICE

Unauthorized use prohibited. See LiveATC.net Terms of Service


Airport/ARTCC Code
Frequency Search
(e.g., 124.400, 128.75)
Site-wide search
 


Browse Feeds
Top 50 Feeds
Coverage Map
Bad Weather Areas

LiveATC FAQ
Offer LiveATC feed
Contact LiveATC.net
Press Inquiries

LiveATC on iPhone
LiveATC on Android

Windows Phone
Windows 8/10

LiveATC Mobile
(Mobile browser)

ATC Audio Archives
Interesting Recordings

LiveATC Forums


Home Page
About LiveATC.net
Make a Donation
Terms of Use
Privacy Policy

Canadian Air Freqs

AIRMETs/SIGMETs

FAA Airport Status
Nat'l Airspace Status
Arrival Demand Charts


Server Software By:
Icecast.org
Liquidsoap